Regional Weather Roundup
Issued by NWS

Home | Current Version | Previous Version | Graphics & Text | Print | Product List | Glossary On
Versions: 1 2 3 4 5 6 7 8 9 10 11 12 13 14 15 16 17 18 19 20 21 22 23 24 25 26 27 28 29 30 31 32 33 34 35 36 37 38 39 40 41 42 43 44 45 46 47 48 49 50
000
ASUS43 KDTX 211110
RWRMI
MICHIGAN HOURLY REGIONAL WEATHER ROUNDUP
NATIONAL WEATHER SERVICE DETROIT/PONTIAC MI
600 AM EST SUN JAN 21 2018

NOTE: "FAIR" INDICATES FEW OR NO CLOUDS BELOW 12,000 FEET WITH NO
SIGNIFICANT WEATHER AND/OR OBSTRUCTION TO VISIBILITY.

MIZ047>049-052>055-059>063-066>070-074>076-081>083-211200-
SOUTHEAST LOWER MICHIGAN

CITY           SKY/WX    TMP DP  RH WIND       PRES   REMARKS
ADRIAN         FOG       34  34 100 S3        30.06S VSB 1/4
ALMA           CLOUDY    33  33  99 CALM      30.03S FOG
ANN ARBOR      CLOUDY    35  35 100 S3        30.05S FOG
BAD AXE        FAIR      29  27  94 CALM      30.04R FOG
CARO           CLOUDY    31  30  96 CALM      30.03S FOG
DETROIT CITY   CLOUDY    36  34  92 S3        30.07S FOG
DETROIT        CLOUDY    35  35 100 S5        30.07R FOG     WCI  31
FLINT          CLOUDY    35  33  92 S6        30.04S WCI  30
GROSSE ILE     CLOUDY    34  33  97 S5        30.06S FOG     WCI  30
HILLSDALE      FOG       34  34 100 CALM      30.03S VSB 1/4
HOWELL         CLOUDY    36  35  98 CALM      30.04R FOG

CITY           SKY/WX    TMP DP  RH WIND       PRES   REMARKS
JACKSON        CLOUDY    36  35  96 S5        30.04R FOG     WCI  32
LAMBERTVILLE   CLOUDY    36  35  96 CALM      30.07S FOG
LANSING        CLOUDY    35  34  96 S5        30.04R FOG     WCI  31
LAPEER         CLOUDY    30  30  99 CALM      30.04S FOG
MASON          CLOUDY    36  32  87 S5        30.03S FOG     WCI  32
MONROE         CLOUDY    36  34  93 CALM      30.07R FOG
MT. CLEMENS    CLOUDY   N/A N/A N/A S3          N/A
PONTIAC        CLOUDY    33  32  96 CALM      30.04R FOG
PORT HOPE        N/A     33  28  81 VRB5      30.00F WCI  29
PORT HURON     CLOUDY    30  28  93 CALM      30.06S FOG
TRI CITIES     CLOUDY    34  33  96 SW5       30.04R FOG     WCI  30
MIDLAND        CLOUDY    33  32  99 CALM      30.04R FOG
TROY           CLOUDY    35  32  90 CALM      30.07S
SAGINAW HB     CLOUDY    32  32 100 S3        30.04R FOG
$$
MIZ043>046-050>051-056>058-064>065-071>073-077>080-211200-
SOUTHWEST LOWER MICHIGAN

CITY           SKY/WX    TMP DP  RH WIND       PRES   REMARKS
BATTLE CREEK   CLOUDY    36  34  92 S5        30.02S WCI  32
BENTON HARBOR  CLOUDY    38  34  85 SE7       29.99F WCI  33
BIG RAPIDS     FOG       31  30  94 CALM      29.99F VSB 1/4
COLDWATER      FOG       37  37 100 SE3       30.03S VSB 1/2
FREMONT        FOG       34  33  95 CALM      30.00S VSB 1/2
HOLLAND        CLOUDY    37  34  89 SE6       30.00F FOG     WCI  32
GRAND RAPIDS   CLOUDY    35  33  92 S3        30.01S FOG
IONIA          CLOUDY    35  34  98 CALM      30.02R FOG
KALAMAZOO      CLOUDY    37  34  89 S5        30.02S WCI  33
LUDINGTON      FOG       31  31 100 CALM      29.99R VSB 1/4
MARSHALL       CLOUDY    36  35  97 CALM      30.03R FOG
MOUNT PLEASANT CLOUDY    35  34  95 W5        30.02R FOG     WCI  31
MUSKEGON       CLOUDY    38  34  85 S5        30.00S FOG     WCI  34
SOUTH HAVEN    CLOUDY    38  34  87 CALM      30.00F
$$
MIZ016>042-211200-
NORTHERN LOWER MICHIGAN

CITY           SKY/WX    TMP DP  RH WIND       PRES   REMARKS
ALPENA         CLOUDY    29  28  96 CALM      30.02R
BEAVER ISLAND  CLOUDY    35  35  99 S3        29.98S FOG
BELLAIRE       CLOUDY    30  30 100 CALM      30.00S
CADILLAC       FAIR      27  27  99 CALM      29.97R FOG
CHARLEVOIX     CLOUDY    32  32 100 CALM      30.02S
FRANKFORT      FAIR      32  32  99 CALM      29.98S FOG
GAYLORD        CLOUDY    30  30 100 CALM      29.98R
GRAYLING       CLOUDY    30  28  92 CALM      29.99S
HARBOR SPRINGS CLOUDY    30  30  99 CALM      30.00S
HOUGHTON LAKE  CLOUDY    28  26  92 CALM      29.99S
MANISTEE       FAIR      27  27 100 E3        29.98F FOG
OSCODA         CLOUDY    29  28  96 CALM      30.01R
PELLSTON       CLOUDY    29  27  92 CALM      30.01S
ROGERS CITY    CLOUDY    32  30  93 S3        30.03R
TRAVERSE CITY  CLOUDY    32  30  92 CALM      29.98S
$$
MIZ007>008-015-211200-
EASTERN UPPER MICHIGAN

CITY           SKY/WX    TMP DP  RH WIND       PRES   REMARKS
KINROSS        FAIR      30  28  93 S3        30.00R FOG
MACKINAC ISLAN MOCLDY    32  31  96 S6        29.99S WCI  26
NEWBERRY       FOG       31  31  98 S5        29.96S VSB 1/4 WCI  26
S. S. MARIE    FAIR      30  27  88 CALM      29.98S
MUNISING         N/A     31  30  96 S6        29.95R WCI  25
$$
MIZ004>006-011>014-085-211200-
CENTRAL UPPER MICHIGAN

CITY           SKY/WX    TMP DP  RH WIND       PRES   REMARKS
MANISTIQUE     FAIR      32  30  93 CALM      29.96S FOG
ESCANABA       CLOUDY    29  27  92 CALM      29.95F
MENOMINEE      MOCLDY    31  29  92 CALM      29.96S
SAWYER-GWINN   FAIR     N/A N/A N/A CALM      29.93F HAZE
$$
MIZ001>003-009>011-084-211200-
WESTERN UPPER MICHIGAN

CITY           SKY/WX    TMP DP  RH WIND       PRES   REMARKS
IRON MOUNTAIN  CLOUDY    29  26  89 S3        29.92F
HOUGHTON       FAIR      29  24  82 NW7       29.92S WCI  22
COPPER HARBOR    N/A     27  24  89 W3        29.95R
IRONWOOD       FAIR      25  24  96 N3        29.94S
$$

ABBREVIATIONS USED IN REMARKS
   TC - TEMPERATURE IN CELSIUS
  WCI - WIND CHILL INDEX
   HX - HEAT INDEX
  VSB - VISIBILITY





USA.gov is the U.S. government's official web portal to all federal, state and local government web resources and services.